Location: Newark
(10.3333°N, 37.7167°E)
Time: 15:19:31
(UTC+00:00)

STARLINK-1078 - Pass Details

Date: 04 February 2020
Orbit: 348 x 351 km, 53.0° (Epoch: 27 February)

Event Time Altitude Azimuth Distance (km) Brightness Sun altitude
Rises 17:16:32 0° 312° (NW) 2,154 7.1 -25.1°
Reaches altitude 10° 17:18:39 10° 302° (WNW) 1,311 6.1 -25.7°
Enters shadow 17:19:15 14° 296° (WNW) 1,095 5.7 -25.8°
